GFSSGP_850_spd_057.txt.gz
Wind_Speed
5 4 2 3 6 3 1 4 2 6 4 3 2 2 7 7 6 4 16 13 16 17 15 15 14 14 12 12 11 11 8 11 13 14 15 15 14 14 13 13 16 19 14 12 12 13 15 15 16
5 3 2 5 5 4 5 5 6 6 6 5 3 2 1 5 5 10 16 14 16 16 16 17 15 14 12 13 11 10 8 10 12 13 13 13 13 13 13 13 14 16 14 13 13 14 14 15 16
3 2 10 3 3 4 4 4 6 6 6 5 4 1 3 4 5 17 10 18 16 15 14 15 16 15 13 13 11 9 8 10 11 11 11 11 12 12 12 12 12 14 13 13 14 14 15 16 17
2 3 5 7 3 4 3 3 7 10 4 4 1 4 3 2 13 9 16 19 16 15 14 16 16 15 13 12 11 9 8 9 10 10 10 11 11 11 10 11 11 11 11 13 14 14 15 15 17
2 5 5 3 3 1 2 2 7 8 6 6 5 3 3 9 9 12 16 18 17 16 15 18 17 16 14 12 11 9 7 9 8 9 10 10 10 10 9 10 10 11 11 12 13 13 14 14 16
7 5 5 6 2 1 2 5 8 8 3 5 5 4 5 10 12 14 16 17 16 16 15 19 17 15 14 13 11 10 8 7 8 8 8 9 9 10 10 10 10 11 11 12 12 12 13 14 16
9 6 7 3 3 3 3 7 9 8 5 6 1 4 5 13 13 15 16 17 16 16 15 17 19 17 15 13 12 10 9 8 7 7 7 7 8 9 10 12 11 11 11 11 11 12 13 14 15
7 7 6 6 4 3 6 9 6 7 6 3 3 3 5 15 16 16 17 18 17 17 17 17 17 19 17 15 13 11 10 9 9 7 6 5 7 7 9 12 12 11 11 11 11 12 13 14 14
4 8 8 7 5 3 8 9 5 5 7 4 5 2 4 17 18 20 21 21 20 20 18 18 18 17 16 15 16 14 12 11 10 9 7 6 7 8 8 9 9 9 9 11 12 13 14 14 15
8 9 8 4 3 3 9 11 8 7 12 12 9 8 7 15 19 21 27 25 29 29 23 20 19 18 17 17 17 16 14 13 12 12 10 9 8 9 8 9 8 7 6 7 9 11 12 12 14
4 10 1 2 1 1 7 9 6 10 12 13 13 14 13 15 19 20 25 24 25 29 29 28 28 25 23 20 18 17 17 15 15 14 13 14 13 8 9 10 9 7 5 3 5 7 8 9 10
7 4 3 1 2 2 5 3 8 16 16 3 11 7 17 18 21 23 23 24 22 24 28 31 28 26 21 24 22 18 18 17 17 18 16 17 17 13 12 11 10 9 8 4 3 4 5 7 8
8 4 4 3 2 3 4 8 9 16 18 13 11 12 16 18 20 20 21 21 22 24 25 30 30 28 28 28 26 24 20 20 19 19 19 20 18 17 15 13 13 12 11 10 8 8 7 8 9
2 5 5 4 5 3 5 9 3 9 15 18 16 16 15 18 20 20 22 24 25 25 25 27 30 30 24 25 27 28 27 22 20 22 21 22 20 21 19 18 15 16 15 14 14 12 7 10 10
3 5 6 10 6 3 3 11 17 17 10 11 20 19 19 20 19 24 24 26 27 28 26 27 30 31 30 27 24 23 26 28 26 23 24 23 23 22 21 21 21 20 17 19 18 14 6 9 10
5 3 8 7 8 3 4 13 3 4 13 17 18 19 20 22 23 22 23 26 27 28 30 29 31 31 32 31 29 27 25 24 27 26 28 28 29 27 24 25 24 22 20 21 23 17 12 11 12
7 8 12 6 7 2 11 9 2 2 8 15 17 19 22 23 23 23 26 28 28 29 30 33 34 33 33 32 32 31 30 29 28 28 28 31 31 29 28 28 28 26 26 21 23 22 17 13 16
9 10 6 8 5 6 11 16 18 14 11 16 19 20 20 22 26 26 28 29 29 31 33 33 35 35 35 35 34 34 34 34 34 30 32 32 37 35 33 32 30 29 32 26 27 27 20 16 16
5 6 7 2 3 4 12 18 19 21 22 24 27 27 27 29 25 22 25 30 32 33 35 37 38 38 37 38 38 38 38 36 38 37 36 31 37 39 37 36 35 32 31 28 27 29 24 22 21
9 12 13 8 1 3 13 22 18 23 26 26 29 28 28 28 26 25 23 28 32 33 37 38 39 39 39 39 38 38 36 37 37 36 40 38 37 39 38 37 36 36 36 35 34 34 31 28 25
12 13 12 8 4 12 11 18 15 13 16 20 29 32 31 31 27 24 26 31 33 35 36 37 39 40 40 39 38 38 36 37 40 39 38 39 39 38 38 38 38 38 38 44 36 37 38 32 28
14 8 12 6 5 6 1 9 18 17 17 13 23 24 27 22 21 21 24 27 32 34 35 37 38 40 40 39 40 41 41 40 39 38 37 39 40 39 38 38 39 43 39 39 41 42 40 35 31
2 3 4 3 6 9 13 7 9 11 10 15 19 19 17 15 14 14 15 20 26 27 30 34 36 38 39 40 40 41 42 40 38 37 38 38 40 38 38 39 39 39 37 41 38 42 40 38 36
12 7 3 1 3 8 12 12 12 14 10 6 6 4 5 3 4 6 9 12 15 19 23 26 32 35 36 39 40 42 43 40 39 39 38 38 40 40 41 40 42 42 40 47 48 38 47 41 38
10 7 4 5 5 9 5 6 14 13 12 10 11 19 9 7 9 10 12 13 11 13 15 20 26 31 34 37 39 40 41 38 38 40 38 38 41 43 43 41 42 41 39 42 39 45 44 41 41
15 13 7 6 7 10 3 9 6 7 12 14 17 16 18 13 14 13 10 11 12 13 14 15 17 20 26 30 34 37 39 40 41 42 40 39 38 42 44 42 43 40 37 39 38 40 44 42 44
7 10 10 9 3 4 9 19 19 11 11 17 21 20 19 16 13 13 11 12 13 11 11 12 13 15 18 21 24 30 33 37 40 42 38 38 38 40 43 42 43 44 41 39 40 44 47 48 47
7 3 7 6 6 9 14 18 13 6 9 6 7 8 7 6 8 8 12 11 9 8 8 10 11 12 13 15 18 22 26 31 36 41 41 38 39 38 39 39 41 42 41 37 39 43 46 44 44
7 7 6 4 7 7 11 11 9 5 2 1 1 2 4 7 6 1 6 6 4 3 7 10 11 11 12 13 14 17 20 25 30 36 40 38 37 40 40 37 38 38 39 37 37 40 43 42 41
14 18 19 7 6 6 6 16 6 1 1 2 2 5 5 2 4 5 5 3 2 3 9 14 17 18 17 16 16 17 19 22 27 31 36 37 38 39 37 37 37 39 41 39 37 40 43 43 41

GFSSGP_850_spd_060.txt.gz
Wind_Speed
3 5 6 5 2 3 4 5 8 7 4 6 8 6 5 14 6 4 13 12 17 20 17 16 16 14 12 12 10 8 8 11 12 13 13 13 13 14 16 18 13 11 10 11 14 16 18 19 21
3 4 5 5 3 2 4 9 6 8 11 8 5 2 1 5 7 16 19 18 17 14 15 15 15 14 13 12 10 8 8 10 12 12 13 13 12 13 15 16 12 10 11 13 15 16 17 19 22
3 3 4 3 3 5 5 3 9 13 8 4 4 3 5 5 11 21 15 17 18 18 14 15 15 14 13 12 11 7 7 9 10 11 12 12 12 12 13 14 12 11 13 14 15 15 17 19 22
1 3 6 2 3 7 7 5 19 11 5 3 2 8 6 8 14 13 18 19 18 15 16 16 16 14 14 13 10 7 6 7 8 9 11 12 11 11 11 10 10 10 12 13 14 16 17 19 22
2 5 4 4 4 5 5 10 12 6 10 9 2 5 5 11 13 11 23 19 17 16 15 17 16 15 14 12 11 8 6 6 7 8 10 10 10 9 8 9 9 10 11 12 13 14 16 19 21
4 4 4 4 7 7 5 7 8 7 8 9 3 4 6 10 14 17 21 20 16 15 15 18 18 16 15 13 11 9 8 7 7 8 8 9 9 9 9 8 9 9 10 11 12 14 16 18 21
2 3 8 6 4 4 6 7 5 6 9 7 1 1 9 10 13 20 18 18 17 17 15 20 19 17 15 14 12 10 9 8 8 7 6 7 8 9 11 10 10 10 9 10 11 12 14 16 17
1 2 9 3 3 2 8 8 4 5 4 9 6 3 7 14 16 17 19 18 17 17 17 17 19 18 17 15 14 12 10 9 9 7 6 6 8 9 10 11 11 10 10 10 10 11 12 13 14
2 2 6 7 3 1 12 6 3 4 6 4 2 1 5 14 18 19 20 20 20 18 18 19 19 20 18 17 16 14 12 11 10 10 8 7 8 9 10 10 11 10 10 10 11 12 12 12 12
4 3 7 8 9 5 10 9 12 4 8 7 8 8 12 17 18 24 26 24 23 22 20 19 19 17 17 17 19 17 14 13 12 11 10 9 8 7 8 8 9 9 8 8 9 11 12 12 11
5 3 6 8 9 5 3 7 3 7 5 12 14 16 17 17 18 20 28 29 30 28 21 19 19 20 20 21 19 19 17 15 14 13 13 9 9 6 7 7 7 8 7 5 6 7 8 9 9
2 4 3 4 2 1 2 3 6 12 7 5 8 12 17 20 20 21 22 25 25 29 29 29 27 24 22 22 20 18 17 16 16 16 14 15 16 12 9 9 8 8 5 7 4 4 4 5 7
4 2 2 2 1 2 5 6 6 12 16 15 11 9 16 17 20 21 20 20 25 24 25 30 32 32 28 24 22 20 20 19 18 19 18 19 20 18 14 9 11 9 10 9 7 7 7 6 8
5 4 3 2 4 3 2 6 5 5 12 15 17 17 17 19 19 20 24 25 24 27 27 28 31 31 29 28 30 27 23 22 20 21 20 22 22 22 18 12 13 14 14 13 12 11 9 7 9
1 1 4 8 7 2 1 7 10 19 11 11 17 18 17 20 21 24 25 28 28 27 28 31 27 32 32 33 30 31 29 26 23 23 23 22 25 24 22 18 18 18 16 16 15 14 13 10 11
3 1 2 1 11 3 3 7 7 5 21 15 15 17 21 22 25 25 26 27 29 29 31 33 32 30 35 34 31 29 29 29 32 27 23 24 26 27 24 24 22 21 21 20 19 17 17 15 11
4 3 7 4 9 3 6 6 3 2 5 11 17 19 22 23 24 28 28 30 29 32 34 35 35 31 32 36 34 31 30 29 27 29 32 29 29 31 29 27 26 25 25 24 22 21 22 19 15
3 4 5 2 5 2 5 10 15 18 11 15 17 18 20 23 27 26 28 28 32 31 34 35 36 35 32 33 35 34 33 33 32 30 29 31 31 36 32 31 29 29 29 28 28 26 24 23 20
4 7 6 4 3 1 7 12 11 19 19 19 23 26 27 30 26 25 28 31 30 33 33 35 37 37 36 36 37 38 38 36 35 35 31 30 32 35 37 36 33 32 33 30 26 31 30 30 28
1 6 7 6 6 1 8 13 10 14 18 27 28 29 30 29 27 27 28 29 32 32 35 37 39 39 38 38 39 39 37 37 36 37 36 35 35 37 38 42 40 37 37 33 38 39 31 33 33
4 6 7 5 3 6 4 10 7 10 24 27 30 33 32 31 26 23 26 31 32 32 34 37 40 40 40 38 38 38 38 38 39 41 40 39 41 41 40 40 42 41 39 41 42 38 37 38 36
5 4 6 4 4 3 3 6 4 10 8 10 24 22 22 21 21 22 24 21 33 32 29 32 36 39 39 38 40 41 41 41 41 40 39 38 41 45 44 41 41 43 42 43 42 40 45 41 41
2 3 3 3 3 5 4 2 8 7 7 7 14 20 17 10 12 13 14 18 22 23 28 28 31 36 38 39 40 40 41 41 41 40 38 38 38 39 43 43 43 43 43 43 42 43 50 42 42
7 4 3 2 2 5 10 9 4 6 6 3 3 4 3 3 6 9 14 17 18 23 24 26 27 30 34 38 39 40 41 41 41 41 41 40 38 37 41 44 44 43 44 44 42 45 41 47 47
2 4 1 2 0 7 3 5 11 8 10 5 6 10 7 4 6 8 11 12 13 16 18 19 22 26 29 33 36 38 39 40 41 40 42 41 41 40 40 42 47 47 45 43 41 45 43 44 53
9 7 5 6 4 3 6 7 6 9 7 8 9 14 10 11 10 13 10 12 12 12 13 14 16 19 23 25 29 31 34 38 40 39 42 42 42 39 37 39 45 45 43 42 42 41 39 43 51
5 7 3 4 2 3 5 7 7 6 7 9 13 15 14 9 7 10 10 12 14 12 11 11 11 12 15 18 20 25 28 31 34 35 38 41 41 39 37 37 41 43 43 43 47 40 41 38 46
3 1 3 2 2 4 7 7 8 2 8 10 4 3 3 7 8 6 7 11 9 6 5 5 6 7 9 12 16 19 22 24 25 28 32 36 37 38 37 35 36 41 44 41 42 43 38 38 37
3 4 3 3 5 5 5 7 3 2 6 8 6 6 3 4 8 9 6 2 2 2 3 7 11 13 15 16 16 17 19 21 23 26 28 31 33 35 37 33 31 33 43 43 41 44 40 39 36
2 6 7 4 3 3 2 15 2 7 7 10 4 6 14 9 3 9 10 9 9 9 10 19 21 16 19 24 27 25 24 23 24 25 27 29 32 34 36 35 33 31 34 34 40 43 43 40 40

GFSSGP_850_spd_063.txt.gz
Wind_Speed
2 5 5 4 4 5 1 2 5 5 4 5 8 9 9 6 2 2 14 21 19 19 18 17 15 13 12 10 9 9 10 11 13 13 14 15 16 19 16 12 8 9 12 15 18 20 22 25 23
2 4 5 1 4 4 3 3 6 4 9 11 8 6 2 2 4 19 21 17 19 16 16 16 15 13 12 11 8 8 10 11 13 13 13 14 14 16 12 9 7 8 13 15 17 20 23 24 21
2 6 3 4 3 3 3 5 8 9 9 7 4 6 5 4 14 18 15 17 18 17 16 16 14 13 13 11 8 8 9 10 12 12 13 13 12 13 11 9 9 11 13 15 17 20 22 22 20
3 3 2 4 2 4 5 8 16 9 7 7 9 8 8 4 23 16 20 18 15 16 16 15 15 14 14 12 8 7 8 9 11 12 12 11 10 10 8 8 9 10 12 14 17 19 21 21 19
3 1 3 3 1 3 5 18 14 5 10 7 6 5 8 18 13 18 22 18 18 17 16 17 16 15 14 13 10 7 8 8 10 10 10 10 9 8 7 8 9 9 11 13 15 17 18 18 18
1 2 4 3 3 4 3 11 15 11 15 10 6 10 8 13 14 19 22 20 17 16 16 17 17 16 14 13 11 8 7 8 8 8 8 9 9 8 8 8 9 9 10 12 14 16 17 17 18
4 4 3 1 4 3 4 7 9 11 11 7 6 4 9 16 14 27 23 16 15 16 16 17 19 17 15 14 12 9 7 8 7 7 7 8 8 9 9 9 9 9 9 11 13 14 15 15 14
2 4 4 3 0 2 5 5 3 11 3 13 8 6 7 17 22 22 25 19 17 18 16 17 19 19 17 16 14 11 10 9 8 7 6 7 8 9 10 10 10 10 9 10 11 11 13 13 12
3 4 3 3 2 4 10 3 1 7 11 5 7 7 7 17 22 24 25 21 20 18 18 17 21 20 18 17 16 14 12 11 9 8 7 6 6 7 9 9 9 10 9 10 10 10 11 12 11
4 4 3 0 2 3 7 5 7 4 8 5 8 7 10 17 21 29 31 28 27 23 21 20 20 21 21 19 18 16 15 13 12 10 9 8 6 7 7 7 8 8 8 9 10 11 10 9 9
4 5 3 2 4 5 3 3 6 6 2 10 15 15 20 18 19 25 29 30 29 26 25 23 23 21 20 21 19 19 18 16 14 14 14 12 10 9 9 7 7 8 7 7 9 9 7 6 6
2 2 4 2 2 2 3 3 1 9 4 1 13 16 21 21 20 23 29 32 32 31 28 24 25 24 22 21 20 18 21 20 18 17 18 18 14 11 11 10 8 9 7 4 3 4 4 6 5
3 1 4 4 1 1 2 2 5 8 11 12 7 15 22 21 19 19 22 29 33 33 30 27 25 26 27 26 24 23 22 21 20 20 19 19 18 14 15 11 11 11 8 9 4 5 4 5 7
1 3 4 3 3 2 1 3 2 6 9 17 18 15 18 21 20 20 22 25 30 33 35 33 30 29 29 29 29 28 24 24 23 22 21 25 21 22 17 16 11 12 10 10 10 10 7 7 8
2 2 1 6 6 2 1 5 8 20 14 11 20 17 19 21 21 24 23 23 24 25 26 30 35 34 34 33 29 28 27 26 25 24 23 25 24 25 24 20 17 14 15 15 14 14 13 14 13
2 3 1 2 9 2 4 8 9 10 14 21 16 15 22 22 24 25 24 24 24 25 27 26 28 31 35 39 35 31 32 29 27 26 25 25 25 25 28 24 24 20 20 22 19 18 17 16 17
3 2 4 2 7 3 3 5 4 7 2 16 19 18 19 23 26 25 25 25 26 27 29 29 29 30 30 31 35 33 34 35 33 32 28 25 25 26 29 28 26 27 26 25 23 22 23 21 20
4 3 3 4 4 3 2 8 11 26 23 25 25 24 21 23 28 27 27 28 25 28 30 32 33 32 31 30 35 36 34 34 35 37 37 36 33 31 30 33 30 30 32 29 28 27 26 25 24
4 3 0 2 2 3 6 7 12 25 23 24 30 31 29 28 24 22 26 28 29 28 31 34 37 36 36 36 37 42 41 38 36 36 34 33 37 36 35 35 36 33 36 34 32 31 31 30 30
2 2 3 1 1 2 4 12 10 18 22 28 33 34 32 30 28 26 27 28 31 30 30 33 38 39 38 38 36 40 42 40 39 36 36 35 36 37 37 39 37 38 38 39 38 36 35 35 36
2 4 3 2 3 2 2 9 6 6 10 18 23 28 30 32 30 26 25 29 30 33 31 30 34 38 39 38 37 37 39 39 40 41 40 40 41 40 38 40 41 40 41 42 41 40 41 42 38
2 1 5 3 4 3 4 6 5 7 11 7 17 22 25 24 21 19 23 27 29 31 30 30 29 32 35 37 39 40 41 42 41 42 41 40 40 42 43 40 42 44 42 43 46 42 41 47 43
5 0 3 3 2 2 2 1 7 5 6 10 15 10 6 6 9 12 12 13 21 22 27 28 28 29 33 37 40 40 40 41 40 39 39 40 40 41 44 44 44 45 45 46 45 48 48 48 44
7 5 6 5 3 3 8 8 5 4 6 2 4 6 5 3 2 3 6 12 14 15 19 23 27 30 31 34 37 39 39 39 38 39 39 39 39 38 40 46 45 48 48 47 48 48 48 49 47
4 6 1 3 2 6 3 2 6 8 9 3 5 5 2 2 2 5 9 11 12 13 15 19 23 24 25 28 31 33 34 35 36 37 39 39 39 41 40 40 44 49 51 50 49 48 47 49 50
7 7 5 7 4 5 3 6 5 10 14 3 2 2 1 6 9 10 10 9 9 10 13 15 17 18 19 21 23 25 28 30 32 34 34 37 38 38 36 36 36 40 45 50 50 49 48 44 46
5 5 5 4 2 3 5 6 8 7 9 15 13 5 8 7 8 8 7 8 6 7 7 7 10 10 11 13 16 18 21 24 26 27 29 31 33 35 34 34 34 35 40 40 48 49 47 43 49
6 5 3 2 1 4 4 5 6 7 12 9 6 8 8 10 11 9 6 4 5 4 2 2 4 6 7 8 11 13 16 18 21 23 26 27 29 30 32 33 32 32 35 37 44 48 47 47 45
2 3 3 4 5 5 2 6 6 7 4 8 9 10 11 9 10 14 14 13 14 13 11 12 16 17 12 11 14 17 22 25 25 27 27 28 29 30 31 32 32 29 31 35 41 44 47 44 46
3 7 6 4 3 4 4 13 3 8 7 12 10 11 8 5 4 9 13 15 17 20 24 26 23 23 19 19 22 24 26 30 32 31 30 30 31 30 32 32 32 31 29 30 33 41 45 45 47

GFSSGP_850_spd_069.txt.gz
Wind_Speed
7 7 6 1 4 5 1 3 1 3 1 2 4 4 6 4 3 3 14 18 25 24 21 17 14 12 11 8 12 12 13 14 13 14 17 14 10 6 5 6 7 9 13 16 15 16 15 15 15
8 7 2 3 4 3 4 3 6 4 8 17 10 7 3 1 3 9 20 20 26 21 20 16 14 15 12 10 12 13 14 13 12 14 14 12 8 5 4 6 7 9 12 15 14 15 15 13 14
8 5 2 4 3 4 4 4 5 5 14 3 4 6 3 3 5 19 15 25 27 21 18 17 15 13 11 11 12 12 12 12 13 13 12 10 7 5 6 8 8 9 10 13 11 12 13 10 11
6 2 4 4 2 3 4 5 4 7 3 3 9 6 3 1 14 16 24 24 25 21 18 15 13 13 12 11 11 11 11 12 12 12 11 8 6 6 7 8 8 9 9 10 10 11 11 11 12
4 2 4 3 3 2 1 11 10 2 6 7 5 4 3 12 10 15 23 22 21 20 18 15 13 12 11 10 9 9 9 10 10 10 10 8 6 5 7 7 8 8 8 8 10 11 12 10 12
2 3 4 2 3 2 1 13 5 3 6 8 6 7 6 14 12 17 19 20 18 16 17 16 14 13 12 11 9 8 8 8 8 8 8 6 6 6 6 6 7 7 8 8 9 9 10 9 12
6 4 5 4 3 1 5 11 5 7 7 4 12 5 5 19 15 14 18 17 16 16 17 17 16 16 14 12 10 9 8 8 6 6 6 5 6 5 5 5 6 6 6 8 8 8 7 7 8
3 5 4 3 5 3 5 10 9 9 5 8 8 4 4 20 19 17 17 15 16 17 18 18 18 16 16 14 11 9 8 7 7 5 5 5 5 5 5 5 4 4 4 5 6 7 6 6 7
4 4 2 4 6 3 10 3 7 4 8 6 8 4 4 20 22 24 22 20 18 18 19 20 20 18 17 16 14 11 9 8 8 7 5 4 3 4 5 4 4 4 4 5 5 5 4 5 7
4 4 8 3 5 4 9 4 11 6 7 5 7 7 7 23 26 28 28 28 24 22 22 21 20 20 19 18 16 14 12 10 9 8 7 5 4 4 4 3 3 3 3 4 5 5 5 4 4
4 5 5 2 2 5 6 1 6 8 3 11 14 13 14 25 27 29 29 26 24 22 22 23 21 22 22 20 19 18 15 14 13 12 10 8 7 7 6 5 4 4 3 2 3 4 4 3 4
3 2 5 6 4 5 6 4 4 11 7 6 15 12 16 24 28 29 29 27 27 27 23 22 22 22 24 23 22 20 19 17 16 14 13 13 11 9 8 7 6 5 3 2 3 4 3 3 3
3 3 5 5 4 3 4 4 5 12 14 7 7 17 18 22 24 26 27 28 27 29 27 24 22 23 25 25 24 23 22 21 18 18 17 16 15 12 11 11 9 7 7 4 5 5 3 4 4
5 5 4 3 3 2 3 2 2 3 15 14 12 13 19 22 23 25 28 29 31 30 31 28 26 23 21 26 27 26 25 23 22 22 21 20 18 16 14 13 14 10 8 10 8 8 7 6 8
7 3 2 2 2 2 3 4 7 10 5 10 18 17 20 21 25 27 24 25 27 30 31 33 31 28 27 24 25 25 25 23 23 22 22 23 20 17 17 14 15 17 12 12 12 12 12 13 11
5 5 1 1 4 1 3 7 3 2 7 12 14 17 22 24 25 25 28 27 28 30 31 32 34 33 31 29 27 27 26 25 26 26 27 25 25 22 21 21 19 18 21 19 17 16 17 17 18
6 3 3 5 7 2 2 6 5 4 2 8 6 14 19 23 27 28 28 30 29 30 31 32 34 35 34 32 30 30 29 30 29 27 29 28 28 27 27 25 22 22 24 25 25 24 22 22 21
5 3 3 3 2 1 2 9 7 15 13 17 18 19 22 24 27 24 24 27 30 30 31 33 34 34 35 34 33 32 34 35 35 35 31 31 32 30 29 29 29 25 29 30 31 30 30 27 26
6 4 4 0 1 2 5 7 12 23 17 24 25 25 27 29 29 26 26 24 27 31 32 31 34 35 37 38 38 38 38 39 41 40 36 32 33 33 33 31 32 31 32 29 31 33 37 33 31
4 3 1 1 1 1 5 11 11 18 15 24 26 24 19 19 23 23 23 25 25 26 28 31 31 32 33 36 37 38 37 39 39 39 38 38 35 36 37 36 35 33 33 35 36 39 37 36 37
2 4 3 3 2 3 5 8 6 5 6 11 13 17 21 19 17 11 11 20 24 26 26 27 30 33 33 32 36 38 38 39 40 42 41 43 37 39 39 39 40 40 40 41 40 39 37 43 38
4 5 5 4 3 3 2 5 6 5 10 9 18 15 14 10 6 6 7 7 13 18 22 25 27 31 33 33 34 34 35 38 35 36 35 36 37 40 40 42 43 43 41 41 44 42 42 43 44
4 4 5 3 4 3 4 1 7 4 7 8 11 7 10 11 10 9 6 2 1 6 14 18 21 27 32 33 33 32 33 33 33 33 34 33 33 37 39 40 41 43 43 42 43 44 44 43 48
8 6 7 5 3 1 5 5 5 3 2 2 7 7 8 8 8 7 7 6 2 3 5 8 14 19 24 27 29 29 29 29 31 32 33 32 31 31 34 39 44 45 45 45 44 45 46 48 49
4 6 2 3 2 5 1 2 8 6 5 3 8 5 7 7 6 5 5 6 5 4 4 4 3 5 10 16 21 23 25 26 28 29 29 30 31 32 32 33 37 41 44 46 46 47 47 48 50
5 6 5 7 4 3 2 5 5 5 7 1 4 6 8 11 10 8 9 10 10 11 12 10 8 5 4 7 11 16 19 21 21 21 21 24 26 27 28 30 33 36 39 41 44 46 48 49 52
5 3 5 7 3 3 3 6 10 5 6 9 12 12 15 17 19 22 19 19 25 25 22 19 17 16 14 9 7 6 8 11 13 15 17 20 22 24 25 27 29 32 35 38 41 44 47 48 49
4 7 3 3 2 3 4 4 5 3 6 4 8 13 16 21 21 22 18 17 18 17 17 16 15 15 15 14 11 11 13 14 15 17 19 21 24 27 30 31 32 32 34 35 37 41 44 45 46
3 3 4 4 4 5 1 5 6 5 8 9 10 15 8 11 16 16 15 14 12 14 11 14 12 14 14 14 13 13 14 17 19 22 23 25 28 30 32 34 35 37 37 36 37 38 40 42 41
2 6 6 5 4 2 3 5 4 9 13 17 11 14 12 6 9 15 11 11 13 13 12 12 13 16 16 16 16 17 17 18 21 25 26 29 33 33 34 35 37 38 39 39 39 37 38 39 40

GFSSGP_850_spd_072.txt.gz
Wind_Speed
8 6 7 3 4 5 1 3 0 3 2 3 6 4 5 3 4 3 14 19 23 23 21 18 15 11 9 11 12 14 14 14 15 14 11 8 6 5 6 8 10 11 15 15 15 14 14 13 13
8 5 5 0 5 3 4 3 5 5 6 15 10 7 3 1 3 9 21 21 23 23 20 18 16 9 8 10 13 13 14 15 15 12 10 8 6 5 7 8 10 11 15 14 16 13 12 12 12
6 5 2 4 3 4 4 5 6 4 17 3 4 4 3 3 4 17 16 26 26 22 18 17 17 13 12 11 12 13 14 14 14 13 10 7 6 7 9 9 10 10 13 13 13 11 12 12 13
3 2 4 4 3 2 3 3 5 7 4 3 6 5 3 1 8 17 23 28 25 22 17 17 16 14 11 11 11 11 11 12 12 13 8 6 6 7 8 9 9 12 10 11 11 11 12 13 14
6 1 4 3 2 2 3 3 11 2 2 4 6 4 3 11 11 15 23 26 24 22 19 16 14 13 10 10 10 9 9 9 9 9 8 6 6 7 7 7 8 9 8 10 12 11 12 13 14
3 2 4 2 2 4 1 7 7 3 1 6 4 8 5 12 11 20 22 23 21 19 18 16 14 13 11 9 9 8 7 7 7 7 6 6 6 7 7 7 6 5 7 7 11 8 10 12 12
4 4 4 4 3 2 3 9 4 7 3 3 7 5 5 13 15 19 20 20 19 17 17 16 15 14 12 9 8 7 7 6 6 6 6 6 7 7 6 6 5 4 5 5 6 6 6 6 8
3 5 4 2 4 4 5 10 4 7 5 4 6 4 4 18 17 19 19 18 18 17 16 16 16 15 14 12 9 8 7 6 6 5 5 6 6 6 5 5 4 4 4 4 4 3 3 3 3
3 4 2 7 6 3 8 4 5 4 6 6 7 3 3 21 20 20 23 21 20 20 18 18 17 16 15 14 12 10 8 8 7 5 4 4 4 4 4 4 3 3 2 2 2 2 2 2 2
4 4 8 5 5 4 10 4 11 5 5 6 7 7 5 21 24 26 27 26 24 23 22 20 19 18 17 16 14 12 10 8 7 6 5 3 3 3 2 2 2 2 2 2 1 1 1 1 1
3 4 5 3 3 7 10 3 6 6 3 10 14 12 10 19 22 24 24 25 25 23 22 22 21 20 19 18 17 16 14 12 10 9 8 6 5 4 3 2 2 1 1 1 0 1 1 1 1
4 2 4 5 4 5 7 4 4 10 5 3 12 10 13 20 22 23 24 25 24 22 21 22 22 21 21 20 19 18 16 15 14 12 11 9 8 7 6 5 4 3 1 0 1 1 1 1 2
3 3 3 3 3 4 5 2 5 10 14 7 6 12 15 17 20 20 21 23 22 23 22 20 21 21 21 22 22 21 20 19 16 15 13 12 11 9 9 8 7 5 2 2 2 2 2 3 4
5 5 4 2 3 2 1 1 1 3 9 15 11 10 16 19 17 22 24 24 26 24 24 22 21 20 20 21 24 24 23 21 19 18 16 15 13 13 12 10 10 8 5 4 6 6 6 6 7
9 4 2 1 2 1 1 4 8 8 5 10 13 12 16 20 23 23 20 23 23 24 25 25 24 23 22 20 20 23 24 23 22 21 20 19 17 16 15 14 11 11 12 11 10 10 10 12 13
5 5 3 2 4 1 3 8 2 2 7 10 9 13 18 21 24 24 25 24 24 26 27 27 27 28 26 25 22 21 22 23 22 21 20 19 19 19 18 16 15 14 16 18 18 17 16 16 15
7 3 3 2 3 2 3 6 3 3 2 3 6 10 16 18 22 24 25 26 27 26 27 30 30 31 30 28 27 25 24 24 25 22 21 22 22 22 21 20 18 18 20 21 22 23 23 24 21
5 3 3 3 1 1 0 10 7 12 13 17 15 14 17 18 20 19 21 24 26 28 28 29 32 32 31 32 31 29 28 27 28 28 27 25 22 25 25 25 23 24 25 25 24 27 27 30 28
6 5 3 1 1 3 5 7 12 23 14 20 25 22 22 23 23 24 25 24 25 29 32 31 31 32 33 33 34 35 34 33 31 32 32 32 30 28 27 29 28 26 26 31 29 31 29 31 31
5 4 2 1 2 2 4 10 11 16 15 21 24 25 20 16 14 14 21 27 27 26 26 31 31 31 31 33 33 34 34 34 33 32 33 34 34 33 33 30 33 30 31 30 32 33 33 35 34
3 6 4 3 1 3 5 8 6 4 5 9 8 11 13 13 13 8 6 14 22 24 24 25 26 29 30 30 34 35 36 36 34 34 33 34 35 36 34 35 34 37 35 35 36 37 37 39 38
5 6 5 6 4 3 3 5 6 5 9 6 11 9 8 7 7 5 1 5 10 16 23 23 23 25 29 32 33 33 33 33 27 27 27 29 32 35 38 40 38 38 37 39 39 39 40 38 41
3 4 5 4 4 3 3 2 7 4 5 5 9 13 12 12 11 13 10 6 2 2 9 15 20 22 24 27 31 31 33 31 30 29 28 29 29 30 31 32 37 40 42 39 40 41 40 41 43
9 7 8 5 3 1 3 4 5 3 2 3 5 9 9 9 8 9 9 9 8 6 4 0 6 12 15 17 20 23 25 26 27 28 28 28 28 27 28 28 30 36 39 41 42 42 43 42 43
4 6 2 2 2 5 2 2 8 4 5 3 5 7 8 9 9 10 9 10 11 11 11 10 9 6 2 3 7 11 15 19 21 22 23 24 25 26 25 26 29 31 35 39 40 42 43 43 45
6 6 5 7 4 2 2 5 5 2 8 0 4 8 11 15 17 19 21 22 23 23 24 23 21 17 13 8 4 4 8 12 14 15 16 17 18 19 19 22 25 29 32 35 37 40 42 43 44
5 4 5 7 3 3 3 6 4 5 6 9 13 17 21 24 26 26 22 22 22 21 21 20 19 18 16 13 9 6 5 7 9 10 12 13 14 15 17 20 23 25 29 32 35 38 41 41 42
3 8 3 3 3 3 3 4 5 1 4 4 9 16 18 20 20 18 17 17 16 15 15 13 12 11 11 10 8 7 8 10 12 14 14 15 17 19 21 24 25 26 28 30 33 37 39 41 42
3 3 4 5 4 5 2 5 6 8 6 7 9 9 12 14 15 15 15 13 11 10 9 9 9 10 10 10 10 10 11 12 15 17 18 21 23 25 28 29 32 32 32 31 32 35 37 40 42
1 6 6 5 4 1 3 5 3 8 8 11 10 11 11 7 10 10 9 9 10 10 10 11 11 12 13 12 11 11 12 14 16 19 21 23 26 28 32 34 36 36 35 34 34 35 36 38 40

GFSSGP_850_spd_075.txt.gz
Wind_Speed
7 6 7 4 3 4 2 2 0 3 2 3 10 5 4 3 3 2 13 19 22 22 21 18 14 13 12 14 13 14 15 17 14 12 9 7 6 9 11 11 13 16 16 15 15 14 13 12 12
6 5 5 3 4 3 2 2 4 4 3 12 9 7 3 2 4 9 20 21 23 23 21 18 15 13 11 13 14 15 15 17 13 9 8 6 6 9 11 11 15 16 16 14 12 14 13 12 13
5 4 2 4 3 3 3 4 4 4 13 2 4 3 3 4 5 20 18 25 26 23 21 19 14 12 9 11 12 12 14 17 13 9 6 6 7 9 11 11 12 14 16 13 13 12 12 15 14
2 1 5 3 2 2 3 2 6 9 3 1 4 4 4 3 12 12 23 25 26 23 19 16 16 12 10 11 12 11 12 13 12 7 5 5 8 9 10 9 10 11 14 13 11 13 15 16 17
4 1 3 2 0 1 2 4 12 5 3 1 3 3 3 7 12 13 25 26 24 21 19 17 15 12 11 11 11 11 11 9 7 7 7 7 8 8 9 8 7 9 12 11 11 13 16 16 13
3 2 3 2 1 2 1 9 9 4 6 3 3 6 5 9 13 20 25 25 23 19 20 16 14 12 11 11 10 10 10 9 8 7 7 7 8 8 9 7 6 7 11 12 10 12 14 11 10
5 3 3 4 2 2 3 10 7 6 6 3 5 4 5 12 15 23 25 24 22 20 18 16 14 13 12 10 9 10 8 8 7 7 7 7 7 8 8 7 6 8 9 11 7 8 7 7 8
5 5 4 1 3 2 6 9 3 6 3 5 7 4 5 16 20 22 25 23 21 20 18 16 16 15 12 11 9 8 7 7 6 5 5 6 6 6 6 6 6 7 6 7 6 5 5 5 5
5 4 3 6 6 3 7 5 4 4 6 6 7 3 5 20 22 26 27 26 23 22 20 18 17 16 15 13 10 9 7 7 6 5 4 4 5 5 5 5 5 6 5 6 5 5 4 3 3
4 4 7 6 5 4 9 4 10 4 3 5 7 8 8 22 24 28 29 29 27 25 23 20 19 17 16 14 12 11 9 8 7 6 5 3 3 3 3 3 4 4 5 4 4 4 3 2 2
4 4 5 3 2 5 11 3 8 8 3 9 11 11 11 25 25 25 27 27 26 24 23 22 21 19 17 16 15 13 11 10 9 7 6 4 2 2 2 2 2 3 3 3 3 2 2 1 2
5 3 5 5 5 6 8 7 4 10 6 3 7 8 13 21 25 25 25 26 25 24 23 22 21 21 20 19 17 16 14 12 11 10 8 6 5 4 3 2 1 1 2 2 2 1 1 2 3
3 4 6 7 7 7 6 2 4 10 11 11 5 10 13 16 21 22 20 20 21 22 21 21 22 22 21 21 19 18 17 15 13 12 11 10 8 7 6 5 4 4 2 1 1 1 1 2 4
5 8 7 4 4 4 2 1 1 2 4 13 12 7 12 16 18 21 23 22 23 21 20 20 20 21 21 21 20 20 19 17 17 16 15 13 11 10 9 8 7 6 4 1 3 3 4 6 8
12 5 2 3 1 2 1 3 7 9 5 4 13 13 11 14 19 21 19 21 20 20 20 22 21 19 20 19 18 19 20 19 20 19 18 16 15 13 12 11 9 8 8 9 9 9 9 9 9
5 5 4 1 3 1 3 7 3 2 9 8 9 13 15 15 17 19 20 22 22 23 22 22 24 24 23 21 20 19 18 18 18 18 18 17 17 15 15 14 12 11 11 12 14 15 16 16 15
6 4 4 1 1 2 2 6 2 1 0 3 8 10 13 15 18 20 21 22 23 23 24 25 25 26 26 25 24 23 21 20 18 17 17 16 15 17 18 17 15 14 16 16 17 18 20 21 22
6 5 1 3 2 2 1 8 9 9 10 14 15 13 13 14 14 15 19 23 24 26 26 26 27 28 27 27 28 28 27 25 24 22 21 19 19 18 17 18 19 19 21 22 23 23 24 23 25
7 5 5 1 1 2 4 7 11 19 14 20 20 18 18 18 18 17 20 22 24 27 29 29 28 27 29 30 31 32 32 30 29 27 25 23 23 24 24 24 21 24 25 25 24 27 29 31 26
5 6 3 2 2 3 1 10 10 12 12 13 15 19 16 13 10 11 16 22 29 27 26 28 28 29 27 28 29 30 30 29 28 27 27 27 26 26 28 29 29 28 27 29 31 30 32 31 33
2 6 5 4 2 3 3 7 6 2 3 6 4 7 7 7 7 6 9 10 19 27 27 26 26 27 28 28 28 29 30 30 29 27 26 26 28 29 30 30 31 30 30 33 30 34 36 34 33
5 4 6 7 4 2 3 4 5 3 7 6 10 10 9 7 6 4 2 3 5 14 21 22 24 24 26 28 29 29 29 28 25 24 22 22 23 25 28 30 31 34 34 35 32 36 35 34 39
3 5 6 4 5 3 3 2 7 3 2 3 7 8 9 9 10 12 11 10 7 2 5 12 18 19 19 22 24 26 28 27 26 26 25 24 24 23 23 25 26 31 33 33 34 36 39 38 38
10 7 8 5 3 1 1 4 5 3 3 2 4 6 8 9 10 12 13 12 11 9 6 3 6 10 12 13 14 15 18 19 21 22 22 22 22 23 23 23 24 27 30 31 33 34 36 38 39
4 6 3 2 2 4 2 3 8 3 2 3 2 6 10 13 15 16 15 16 16 16 14 12 11 8 6 5 5 6 7 10 12 14 16 18 19 19 19 21 24 25 27 30 32 35 37 39 40
6 6 5 7 4 2 2 5 5 2 8 3 4 11 17 20 23 25 25 25 26 25 25 22 21 18 15 12 8 4 0 3 5 8 10 10 11 12 13 15 18 21 24 27 31 34 37 39 41
5 5 4 8 2 3 3 6 5 3 5 9 13 21 25 23 25 25 24 24 23 21 21 20 19 19 17 15 12 8 6 4 4 6 8 9 10 12 13 15 17 19 22 25 28 33 36 38 39
4 8 4 3 3 3 3 5 5 5 5 5 10 19 21 22 22 21 19 18 16 15 14 12 12 11 11 9 8 7 6 7 8 9 11 13 15 17 19 20 22 24 25 26 28 31 35 38 41
3 3 5 5 4 5 3 6 6 8 8 10 14 18 19 20 20 17 15 13 12 11 9 9 9 9 8 8 7 7 7 9 11 12 14 16 18 21 23 25 28 29 29 29 30 31 31 34 37
1 6 6 5 5 1 3 5 1 6 11 16 15 15 15 16 15 14 14 12 10 10 9 9 9 9 10 10 9 10 10 11 12 13 15 18 19 21 23 25 26 28 29 29 30 32 32 33 35